Regional Weather Roundup
Issued by NWS

Home | Current Version | Previous Version | Graphics & Text | Print | Product List | Glossary On
Versions: 1 2 3 4 5 6 7 8 9 10 11 12 13 14 15 16 17 18 19 20 21 22 23 24 25 26 27 28 29 30 31 32 33 34 35 36 37 38 39 40 41 42 43 44 45 46 47 48 49 50
000
ASUS43 KLOT 301258
RWRIL

ILLINOIS REGIONAL WEATHER ROUNDUP
NATIONAL WEATHER SERVICE CHICAGO/ROMEOVILLE IL
800 AM CDT SAT AUG 30 2014

NOTE: "FAIR" INDICATES FEW OR NO CLOUDS BELOW 12,000 FEET WITH NO
SIGNIFICANT WEATHER AND/OR OBSTRUCTIONS TO VISIBILITY.

* THESE STATIONS ARE NOT UNDER NWS QUALITY CONTROL. THEY ALSO MAY NOT
  REPORT WEATHER SUCH AS PRECIPITATION OR FOG.

ILZ001-002-007-009-015-016-024-301400-
NORTHWEST ILLINOIS

CITY           SKY/WX    TMP DP  RH WIND       PRES   REMARKS
MOLINE         CLOUDY    71  67  87 SW13G22   29.84R
$$

ILZ003-004-008-010-011-017-018-301400-
NORTH CENTRAL ILLINOIS

CITY           SKY/WX    TMP DP  RH WIND       PRES   REMARKS
ROCKFORD       NOT AVBL
$$

ILZ005-006-012>014-019>023-301400-
NORTHEAST ILLINOIS

CITY           SKY/WX    TMP DP  RH WIND       PRES   REMARKS
CHICAGO-OHARE  PTSUNNY   74  68  81 SW10      29.85F
CHICAGO-MIDWAY CLOUDY    76  71  85 S15       29.86S
AURORA         PTSUNNY   72  69  90 S8        29.86S FOG
WAUKEGAN       PTSUNNY   72  68  87 S12       29.83R
DUPAGE AIRPORT CLOUDY    72  69  90 S9        29.85F FOG
WHEELING       PTSUNNY   74  68  81 SW9       29.86F
NORTHERLY ISL    N/A     74  68  81 S7          N/A
$$

LMZ740>746-301400-
SOUTHERN LAKE MICHIGAN

STATION/POSITION SKY/WX   TEMP    WIND        PRES    VSBY  WAVE
                          AIR SEA DIR/SP/G                  HT/PER
                          (F)     (DEG/KT/KT) (MB)    (MI)  (FT/S)
SOUTHERN BUOY              71 69  190/ 14/ 16   N/A
WAUKEGAN HARBOR            73     220/ 13/ 18   N/A
HARRISON CRIB              74     210/ 16/ 20   N/A
BURNHAM HARBOR             74     190/  4/ 14   N/A
CALUMET HARBOR             74     200/  9/ 13 1010.6R
MICHIGAN CITY              73     170/ 14/ 19   N/A
MICHIGAN CITY 6N           73 72  200/ 14/ 16   N/A           2/ 3
ST. JOSEPH                 73 71  190/ 12/ 16   N/A           3/ 4
$$

ILZ025>027-034>036-040-047-049-050-058-095>099-301400-
WEST-CENTRAL ILLINOIS

CITY           SKY/WX    TMP DP  RH WIND       PRES   REMARKS
$$

ILZ028>032-037-038-041>044-048-051>054-059>061-301400-
CENTRAL ILLINOIS

CITY           SKY/WX    TMP DP  RH WIND       PRES   REMARKS
PEORIA         NOT AVBL
SPRINGFIELD    MOSUNNY   74  69  85 S9        29.93R
TAYLORVILLE    NOT AVBL
$$

ILZ033-039-045-046-055>057-062-063-301400-
EAST-CENTRAL ILLINOIS

CITY           SKY/WX    TMP DP  RH WIND       PRES   REMARKS
CHAMPAIGN      CLOUDY    73  69  87 S10       29.95S
MATTOON        CLOUDY    73  68  84 S9        29.96S
$$

ILZ079-100>102-301400-
SOUTHWEST ILLINOIS

CITY           SKY/WX    TMP DP  RH WIND       PRES   REMARKS
CAHOKIA*       CLOUDY    74  71  91 S7        29.95S
$$

ILZ064>066-069>071-074>076-080>082-084>086-088>090-092>094-301400-
SOUTH-CENTRAL ILLINOIS

CITY           SKY/WX    TMP DP  RH WIND       PRES   REMARKS
CARBONDALE     LGT RAIN  74  70  87 SW7       30.00R
MARION         CLOUDY    73  72  94 S6        30.01S
$$

ILZ067-068-072-073-078-083-087-091-301400-
SOUTHEAST ILLINOIS

CITY           SKY/WX    TMP DP  RH WIND       PRES   REMARKS
LAWRENCEVILLE  CLOUDY    73  71  93 SW8       30.01R
$$

ABBREVIATIONS USED IN REMARKS
   TC - TEMPERATURE IN CELSIUS
  WCI - WIND CHILL INDEX
   HX - HEAT INDEX
  VSB - VISIBILITY
$$




USA.gov is the U.S. government's official web portal to all federal, state and local government web resources and services.